Location: Riverton
(43.0250°N, 108.3790°W)
Time: 02:30:51
(UTC-06:00)

Daily predictions for brighter satellites

Satellite Brightness Start Highest point End
(mag) Time Altitude Azimuth Time Altitude Azimuth Time Altitude Azimuth
Cosmos 2098 Rocket 4.0 00:06:51 10° N 00:11:25 48° E 00:12:10 45° ESE
Cosmos 2322 Rocket 2.1 00:09:10 10° NNW 00:14:55 85° ENE 00:16:01 60° SSE
Lacrosse 5 rocket 2.1 00:10:23 10° NW 00:14:58 54° NE 00:15:49 46° ENE
Cosmos 1470 3.0 00:13:16 10° N 00:16:51 70° NNW 00:16:51 70° NNW
Meteor 1-16 Rocket 4.4 00:12:55 10° N 00:18:13 53° ENE 00:19:07 48° ESE
SME Rocket 3.3 00:20:39 71° SSW 00:21:07 81° WSW 00:25:15 10° NNW
Cosmos 1707 3.3 00:26:41 56° NNE 00:26:41 56° NNE 00:29:48 10° N
USA 229 DEB 4.5 00:22:24 10° NW 00:28:57 39° WSW 00:30:31 35° SW
USA 229 4.4 00:22:29 10° NW 00:29:03 40° WSW 00:30:38 36° SW
USA 234 4.3 00:23:31 10° E 00:29:34 42° NNE 00:35:37 10° NW
CZ-2C R/B 2.6 00:28:27 10° NNE 00:34:04 69° ESE 00:34:42 63° SE
USA 32 3.9 00:34:35 71° SE 00:35:02 78° E 00:40:18 10° N
ATLAS 2AS CENTAUR R/B 4.4 00:27:59 10° NNW 00:35:15 34° NE 00:42:08 10° E
NOSS 3-1 (A) 4.0 00:28:23 10° NW 00:36:02 89° NE 00:39:17 42° SE
Cosmos 1934 Rocket 4.1 00:29:56 10° NNW 00:36:14 66° W 00:37:46 50° SSW
Cosmos 494 Rocket 4.2 00:37:10 51° WSW 00:38:10 61° WNW 00:43:19 10° NNE
Meteor 1-24 Rocket 4.1 00:38:42 49° ESE 00:39:33 53° E 00:45:24 10° NNE
Cosmos 2219 Rocket 4.3 00:40:54 10° N 00:45:00 20° NE 00:49:05 10° E
ATLAS CENTAUR R/B 2.8 00:45:07 10° NW 00:47:05 27° WNW 00:47:05 27° WNW
Cosmos 1842 Rocket 3.7 00:44:35 10° N 00:48:51 71° NE 00:48:51 71° NE
Cosmos 2100 Rocket 4.4 00:47:53 10° N 00:53:53 52° ENE 00:55:24 43° ESE
ARGOS Delta rocket 4.2 00:52:12 10° N 00:57:32 72° WNW 00:58:21 61° SW
Spot 2 4.3 00:59:22 10° NNE 01:04:32 88° WNW 01:04:54 78° SSW
SL-16 R/B 3.0 01:01:58 10° NW 01:07:08 37° WSW 01:07:17 37° WSW
Cosmos 2061 Rocket 4.2 01:06:59 10° N 01:13:09 62° E 01:14:41 48° SE
In-Cosmos 22 4.0 01:19:24 72° SSE 01:19:54 79° E 01:25:26 10° NNE
CZ-2C R/B 3.8 01:20:17 41° WSW 01:20:42 42° W 01:26:05 10° NNW
ALOS 2 3.7 01:21:51 33° W 01:21:51 33° W 01:25:18 10° NNW
Cosmos 2227 Rocket 4.2 01:22:51 14° ESE 01:23:31 15° E 01:26:31 10° ENE
H-2A R/B 3.7 01:20:08 10° NNE 01:23:39 34° E 01:23:39 34° E
Meteor 2-1 Rocket 4.2 01:20:10 10° NNW 01:26:05 76° W 01:26:57 63° SSW
ISS -1.7 01:26:56 10° NW 01:29:49 27° NNE 01:30:11 26° NNE
Cosmos 1992 Rocket 3.8 01:26:28 10° NNW 01:31:43 89° WSW 01:32:04 78° SSE
Cosmos 2322 3.6 01:27:12 10° NNW 01:32:49 68° WSW 01:33:14 65° SW
SeaSat 1 3.3 01:33:27 37° W 01:33:27 37° W 01:37:28 10° NW
Cosmos 2237 4.1 01:30:51 10° NNW 01:36:34 86° WSW 01:37:22 67° SSE
Cosmos 1340 Rocket 3.3 01:37:38 55° NNE 01:37:38 55° NNE 01:40:50 10° NNE
USA 267 3.7 01:31:08 10° NE 01:37:31 59° NNW 01:42:34 17° WSW
Cosmos 1190 Rocket 4.4 01:38:02 50° ESE 01:38:21 50° ESE 01:43:28 10° NNE
Lacrosse 5 3.0 01:35:59 23° W 01:38:40 40° NNW 01:43:27 10° NE
Meteor 1-21 Rocket 4.5 01:37:42 52° SE 01:38:45 61° E 01:44:31 10° NNE
Okean 3 Rocket 3.6 01:41:26 78° NW 01:41:26 78° NW 01:45:50 10° N
Cosmos 2360 Rocket 2.6 01:40:58 10° NW 01:46:20 44° WSW 01:46:21 44° WSW
Cosmos 1000 Rocket 4.5 01:45:23 56° SSW 01:46:47 77° W 01:53:10 10° N
Cosmos 2219 3.1 01:46:23 64° SSE 01:47:03 71° ESE 01:52:39 10° NNE
Cosmos 1356 Rocket 4.2 01:48:09 41° ENE 01:48:09 41° ENE 01:51:36 10° NNE
Cosmos 1408 Rocket 3.9 01:48:01 54° E 01:48:01 54° E 01:52:06 10° NNE
Cosmos 1725 Rocket 4.2 01:41:49 10° N 01:48:06 64° E 01:50:08 43° SE
CZ-4B R/B 3.3 01:50:23 25° NNW 01:50:23 25° NNW 01:51:53 10° NNW
ERBS 4.5 01:50:47 21° ENE 01:50:47 21° ENE 01:52:08 10° ENE
COSMOS 2428 2.6 01:45:01 10° NNW 01:50:49 88° WSW 01:51:54 61° SSE
Cosmos 2173 Rocket 4.0 01:47:27 10° NNW 01:53:27 60° W 01:54:32 52° SW
Lacrosse 5 rocket 3.7 01:50:10 10° WNW 01:51:29 16° W 01:51:29 16° W
SL-08 R/B 4.4 01:48:59 10° N 01:55:09 85° E 01:56:43 53° SSE
Cosmos 1766 Rocket 3.6 01:56:11 70° E 01:56:11 70° E 02:00:25 10° NNE
Landsat 5 3.9 01:56:53 57° W 01:56:53 57° W 02:01:04 10° NNW
Cosmos 2333 4.1 01:51:30 10° NNW 01:57:17 87° WSW 01:58:24 60° SSE
Cosmos 2322 Rocket 4.2 01:55:26 10° WNW 01:57:49 14° W 01:57:49 14° W
Cosmos 1908 3.8 01:55:26 10° NNW 01:58:37 53° NW 01:58:37 53° NW
Cosmos 2221 3.3 01:56:19 10° NNW 01:59:51 42° WNW 01:59:51 42° WNW
USA 234 3.1 02:08:35 28° SE 02:12:17 76° SW 02:18:51 10° NW
Cosmos 1242 Rocket 3.2 02:09:06 10° N 02:11:54 53° N 02:11:54 53° N
Cosmos 1515 Rocket 4.3 02:10:26 10° N 02:14:41 45° ENE 02:15:33 40° ESE
Meteor 2-2 Rocket 4.3 02:09:43 10° N 02:15:22 73° E 02:17:04 46° SSE
PSLV R/B 3.5 02:11:12 10° NNE 02:15:26 73° ESE 02:15:26 73° ESE
Cosmos 1743 Rocket 3.9 02:16:44 52° ESE 02:17:06 54° E 02:21:27 10° NNE
NOSS 2-1 (D) 4.3 02:22:14 36° E 02:22:14 36° E 02:25:37 10° NE
NOSS 2-1 (C) 4.3 02:22:23 35° E 02:22:23 35° E 02:25:45 10° NE
Cosmos 1140 Rocket 4.0 02:22:02 42° SE 02:23:04 49° ESE 02:28:04 10° NNE
Cosmos 2333 Rocket 2.2 02:17:20 10° NNW 02:23:05 81° ENE 02:25:16 39° SSE
Cosmos 1076 Rocket 4.3 02:23:26 38° WNW 02:23:27 38° WNW 02:27:31 10° N
Cosmos 1674 3.8 02:25:30 34° WNW 02:25:30 34° WNW 02:28:42 10° N
ATLAS 2AS CENTAUR R/B 2.9 02:19:02 10° NW 02:27:04 76° WSW 02:31:13 30° SSE
Aureole 2 Rocket 3.7 02:23:12 10° N 02:27:07 47° ENE 02:28:13 37° ESE
Cosmos 2151 3.8 02:28:22 38° ESE 02:28:58 41° E 02:32:56 10° NNE
Cosmos 2297 Rocket 3.0 02:27:30 34° SE 02:29:01 41° ESE 02:34:17 10° NE
Cosmos 2219 Rocket 2.1 02:23:54 10° NNW 02:29:35 75° WSW 02:31:02 51° S
Cosmos 1980 3.8 02:25:14 10° NNW 02:30:57 72° ENE 02:33:55 29° SE
Cosmos 1726 2.5 02:30:47 10° NNW 02:34:01 57° NW 02:34:01 57° NW
NOSS 3-3 (A) 3.9 02:33:08 46° SW 02:35:11 89° ESE 02:41:54 10° NE
NOSS 3-3 (C) 3.9 02:33:15 46° SSW 02:35:17 89° SE 02:41:59 10° NE
SL-14 R/B 3.2 02:38:17 84° SSW 02:38:24 89° W 02:42:30 10° N
NOSS 2-1 (E) 3.4 02:44:38 59° SE 02:44:43 59° ESE 02:48:57 10° NE
NPP 4.1 02:39:34 10° NNE 02:44:52 53° E 02:46:52 35° SSE
Cosmos 1328 Rocket 3.6 02:40:43 10° NNW 02:45:07 60° W 02:45:23 59° WSW
Cosmos 1151 Rocket 3.0 02:42:41 10° N 02:47:02 77° E 02:47:58 54° SSE
Cosmos 1300 2.9 02:43:23 10° NNW 02:46:53 56° WNW 02:46:53 56° WNW
Cosmos 2237 Rocket 2.1 02:43:51 10° NNW 02:49:32 89° WSW 02:52:19 31° SSE
SL-16 R/B 3.6 02:44:09 10° SE 02:49:54 43° ENE 02:55:40 10° N
SL-8 R/B 4.1 02:47:52 29° W 02:50:12 60° NNW 02:54:57 10° ENE
SL-16 R/B 3.3 02:45:43 10° NNW 02:51:08 43° ENE 02:56:30 10° SE
Cosmos 1023 Rocket 4.4 02:49:49 50° SSW 02:51:15 88° ESE 02:56:29 10° NNE
Meteor 2-10 4.0 02:49:44 10° NNW 02:54:50 68° W 02:56:16 46° SSW
Helios 1A Rocket 3.2 02:54:17 10° N 02:58:21 53° WNW 02:58:56 49° WSW
CBERS-1 4.2 02:53:37 10° NNE 02:58:43 64° ESE 03:00:42 36° S
H-2A R/B 4.1 02:56:04 10° NNW 02:59:26 23° WNW 03:00:16 22° W
Cosmos 1954 Rocket 4.1 02:58:07 43° SW 02:59:42 65° WNW 03:04:56 10° NNE
Cosmos 407 Rocket 4.4 02:58:47 29° W 03:00:26 36° WNW 03:05:11 10° N
Cosmos 1570 Rocket 4.4 02:55:16 10° NNW 03:00:36 66° ENE 03:04:42 17° SSE
Resurs 1-4 Rocket 3.4 02:56:42 10° NNE 03:01:30 34° E 03:04:44 18° SSE
Cosmos 2228 Rocket 3.6 02:58:55 10° NNW 03:03:09 41° W 03:03:32 40° WSW
ATLAS 3B CENTAUR R/B 4.4 02:44:16 10° WSW 03:03:22 39° SSW 03:11:02 10° SE
ARIANE 5 R/B 3.8 03:01:10 10° NNE 03:05:43 32° E 03:08:48 18° SSE
Cosmos 2227 Rocket 2.2 03:04:40 40° SW 03:06:48 79° WNW 03:12:30 10° NNE
NOSS 7 (H) 4.4 03:08:42 65° SE 03:08:45 66° SE 03:12:06 10° NE
Cosmos 2058 2.8 03:08:23 56° SSW 03:09:11 80° W 03:13:19 10° N
UNK 4.4 03:12:55 16° SE 03:16:27 54° ENE 03:20:58 10° N
Lacrosse 5 4.4 03:19:24 10° NW 03:22:52 18° N 03:26:19 10° NNE
CZ-2D R/B 2.7 03:18:18 10° NNE 03:23:24 51° E 03:26:43 21° SSE
ERBS 4.4 03:24:04 16° WNW 03:25:42 22° NNW 03:28:24 10° NNE
Cosmos 1455 2.1 03:25:46 10° N 03:29:39 87° W 03:31:11 36° S
Cosmos 1666 Rocket 4.3 03:28:05 22° SSE 03:30:43 50° E 03:35:03 10° NNE
Cosmos 1072 Rocket 4.5 03:26:46 10° NNW 03:32:50 67° W 03:36:45 23° S
Cosmos 1513 Rocket 4.5 03:29:09 10° N 03:35:36 82° W 03:40:36 17° S
Transit 2A Rocket 4.4 03:35:50 36° SSW 03:37:33 88° ESE 03:41:57 10° NNE
SL-08 R/B 3.7 03:36:01 31° SSW 03:37:56 46° W 03:42:44 10° NNW
IRS-1C 4.1 03:32:59 10° N 03:38:20 73° WNW 03:41:16 27° SSW
Cosmos 2082 4.1 03:35:30 27° SW 03:38:21 52° WNW 03:43:51 10° NNE
Cosmos 1891 Rocket 4.5 03:32:22 10° N 03:38:45 80° W 03:43:41 17° S
Lacrosse 4 Rocket 1.9 03:39:11 28° S 03:41:05 51° ESE 03:45:11 10° NE
AQUA 4.1 03:37:53 10° N 03:42:32 54° WNW 03:44:46 28° SW
Spot 4 Rocket 4.0 03:39:40 10° NNE 03:44:51 90° WNW 03:48:06 23° SSW
Cosmos 1626 2.9 03:44:25 31° WSW 03:45:19 36° WNW 03:48:49 10° N
Cosmos 1805 Rocket 3.5 03:44:58 29° SSW 03:47:09 71° W 03:51:35 10° N
Cosmos 468 Rocket 4.2 03:42:52 10° NNW 03:48:05 73° ENE 03:53:12 10° SSE
Cosmos 2208 Rocket 4.2 03:45:39 10° NNW 03:50:40 50° WSW 03:54:13 19° S
Cosmos 1464 Rocket 4.2 03:46:57 10° NNW 03:52:52 51° W 03:56:56 20° SSW
USA 234 4.4 03:55:51 19° WSW 03:55:57 20° WSW 04:00:29 10° WNW
Cosmos 1869 3.2 03:53:40 10° N 03:57:43 79° W 04:00:43 17° S
CZ-3A R/B 3.0 03:56:47 10° NNW 03:59:17 39° NE 04:06:14 10° ESE
DELTA 2 R/B (1) 3.7 03:55:50 21° WSW 03:59:29 57° S 04:04:56 10° E
IRS-1D 3.6 03:54:49 10° N 04:00:09 74° WNW 04:03:54 20° SSW
ADEOS Rocket 3.6 03:53:50 10° N 04:01:15 69° WNW 04:07:32 17° SSW
Cosmos 2333 Rocket 3.9 04:03:37 10° WNW 04:06:32 14° W 04:07:13 14° WSW
CZ-2D R/B 3.9 04:03:29 10° NNE 04:07:30 56° E 04:11:17 12° S
Cosmos 1763 Rocket 4.0 04:03:25 10° NNW 04:08:38 61° ENE 04:13:44 10° SSE
Okean O Rocket 4.2 04:06:18 10° NE 04:09:10 17° E 04:12:00 10° SE
BREEZE-M R/B 4.3 04:06:58 17° SSW 04:11:59 42° SSE 04:15:43 10° ENE
Cosmos 1634 Rocket 4.3 04:05:52 10° N 04:12:03 67° E 04:18:10 10° SSE
Cosmos 1814 Rocket 4.1 04:07:21 10° NNW 04:12:44 86° ENE 04:18:06 10° SSE
Cosmos 2297 Rocket 3.3 04:09:18 15° WSW 04:13:09 32° NW 04:18:12 10° N
Cosmos 1603 4.1 04:08:31 10° NNW 04:14:15 70° ENE 04:19:53 10° SSE
Sich 1 3.3 04:11:32 20° SSW 04:14:24 54° W 04:18:42 10° N
Cosmos 1633 Rocket 3.1 04:11:33 18° SSW 04:14:40 65° W 04:19:00 10° N
Cosmos 1470 Rocket 3.9 04:11:04 10° S 04:15:20 63° E 04:19:37 10° NNE
ATLAS 2AS CENTAUR R/B 4.3 04:12:32 10° WNW 04:16:41 15° WSW 04:18:34 14° WSW
NOSS 3-4 (A) 3.8 04:11:46 10° NW 04:18:46 66° WSW 04:26:12 10° SSE
NOSS 3-4 (C) 3.8 04:11:52 10° NW 04:18:52 67° WSW 04:26:19 10° SSE
UNKNOWN OBJECT B 2.8 04:20:50 10° N 04:24:52 76° WNW 04:28:17 13° SSW
Cosmos 332 Rocket 3.7 04:20:28 10° NNW 04:25:19 72° WSW 04:30:09 10° S
MOS 1 Rocket 3.6 04:23:31 10° NNE 04:28:43 88° WNW 04:34:07 10° SSW
BREEZE-M DEB (TANK) 3.7 04:21:34 10° W 04:29:41 65° NNW 04:32:52 10° ENE
Cosmos 2237 Rocket 4.0 04:30:39 10° WNW 04:32:41 12° W 04:34:04 11° WSW
Cosmos 220 Rocket 4.2 04:29:00 10° SSW 04:33:21 75° ESE 04:37:49 10° NNE
SL-16 R/B 3.3 04:28:29 11° SSW 04:33:36 32° W 04:39:06 10° NNW
SL-16 R/B 3.1 04:30:12 10° NW 04:35:01 29° WSW 04:39:50 10° SSW
ATLAS 5 CENTAUR R/B 3.0 04:31:46 10° S 04:36:02 37° ESE 04:40:37 10° NE
ADEOS 4.3 04:31:25 10° N 04:36:16 39° WNW 04:40:42 12° SW
SL-24 R/B 3.9 04:32:56 10° NNE 04:36:48 74° E 04:40:27 10° S
Cosmos 1315 Rocket 4.5 04:34:59 10° SSE 04:38:38 33° E 04:42:16 10° NNE
Resurs 1-4 Rocket 3.1 04:36:36 10° N 04:41:17 33° WNW 04:45:49 11° SW
Cosmos 2227 4.3 04:38:28 11° SSW 04:44:03 73° WNW 04:49:50 10° NNE
USA 102 4.5 04:40:58 10° NE 04:44:04 33° ESE 04:45:51 10° S
ARIANE 5 R/B 3.5 04:40:20 10° N 04:44:47 31° WNW 04:49:08 10° SW
ADEOS II 2.9 04:42:34 10° NNE 04:47:42 51° E 04:52:48 10° S
Cosmos 2227 Rocket 4.3 04:48:40 10° WNW 04:51:49 15° NW 04:54:59 10° N
Cosmos 540 Rocket 4.3 04:48:56 10° NNW 04:54:04 57° ENE 04:59:08 10° SE
Meteor 2-3 Rocket 4.1 04:52:45 10° S 04:58:24 73° E 05:04:10 10° NNE
Cosmos 1943 3.4 04:55:46 10° NNW 05:01:26 82° ENE 05:07:04 10° SSE
USA 161 2.2 05:00:51 10° SW 05:02:19 18° W 05:03:45 10° NW
CZ-2D R/B 3.6 04:59:11 10° NNW 05:03:06 22° WNW 05:07:03 10° WSW
Cosmos 1933 3.9 04:59:26 10° NNW 05:03:15 38° W 05:07:03 10° SSW
